#timestamp,LO_Frequency,Hit,StdDev 
1590667215.2,286046998.2,N
1590667235.1,286046999.5,P
1590667236.0,286046999.5,N
1590667255.8,286046997.3,Y
1590667275.6,286046998.6,P
1590667295.5,286046998.3,P
1590667315.3,286046996.9,P
1590667335.2,286046996.8,Y
1590667355.9,286046998.8,P
1590667375.7,286046997.5,P
1590667395.6,286046995.9,P
1590667415.4,286046995.4,Y
1590667435.2,286046999.4,P
1590667455.1,286046999.0,N
1590667456.0,286046999.0,N
1590667475.8,286046999.3,N
1590667495.7,286046999.4,N
1590667515.5,286046999.3,N
1590667535.3,286046998.8,N
1590667555.2,286047000.7,N
1590667575.0,286046999.9,N
1590667575.9,286046999.9,N
1590667595.8,286047003.5,Y
1590667615.6,286047002.0,P
1590667635.4,286047002.1,N
1590667655.3,286047003.3,N
1590667675.1,286047002.5,N
1590667695.8,286047002.0,N
1590667715.7,286047002.4,N
1590667735.5,286047002.4,N
1590667755.4,286047001.0,N
1590667775.2,286047002.6,N
1590667795.0,286047000.6,N
1590667795.9,286047000.6,N
1590667815.8,286046998.3,N
1590667835.6,286047001.0,N
1590667855.5,286047000.6,N
1590667875.3,286047003.7,N
1590667895.1,286047005.1,Y
1590667915.9,286047003.8,P
1590667935.7,286047004.3,P
1590667955.5,286047002.7,N
1590667975.4,286047001.3,N
1590667995.2,286047003.2,N
1590668015.1,286047003.7,Y
1590668016.0,286047003.7,P
1590668035.8,286046998.6,P
1590668055.6,286046998.3,N
1590668075.5,286047001.0,N
1590668095.3,286047002.2,N
1590668115.2,286047000.2,N
1590668135.9,286047000.8,N
1590668155.7,286046998.1,N
1590668175.6,286046998.6,N
1590668195.4,286046998.2,N
1590668215.2,286046999.5,N
1590668235.1,286046997.1,N
1590668236.0,286046997.1,N
1590668255.8,286046999.1,N
1590668275.7,286046999.2,N
1590668295.5,286046997.3,N
1590668315.3,286046997.6,N
1590668335.2,286046997.6,N
1590668355.0,286046999.6,N
1590668355.9,286046999.6,N
1590668375.8,286046997.4,N
1590668395.6,286046999.5,N
1590668415.4,286046997.6,N
1590668435.3,286046997.8,N
1590668455.1,286046999.5,N
1590668475.9,286046996.9,N
1590668495.7,286046999.5,N
1590668515.5,286046996.6,N
1590668535.4,286046995.2,N
1590668555.2,286046997.6,N
1590668575.1,286046997.1,N
1590668576.0,286046997.1,N
1590668595.8,286046998.1,N
1590668615.7,286046999.0,N
1590668635.5,286046998.2,N
1590668655.3,286046999.3,N
1590668675.2,286046996.6,N
1590668695.0,286046995.4,Y
1590668695.9,286046995.4,P
1590668715.8,286046998.0,N
1590668735.6,286046997.5,N
1590668755.4,286046995.2,Y
1590668775.3,286047000.5,P
1590668795.1,286047000.8,N
1590668815.8,286047000.3,N
1590668835.7,286047002.0,N
1590668855.5,286047000.2,N
1590668875.4,286047000.9,N
1590668895.2,286046999.1,N
1590668915.0,286046995.8,Y
1590668915.9,286046995.8,P
1590668935.8,286046997.1,N
1590668955.6,286046997.7,N
1590668975.5,286046996.6,N
1590668995.3,286046998.8,N
1590669015.1,286046996.6,N
1590669035.9,286046997.5,N
1590669055.7,286046995.7,Y
1590669105.6,286046997.1,E
1590669115.5,286046998.9,N
1590669135.3,286047000.5,P
1590669155.2,286047002.7,P
1590669175.0,286047001.3,N
1590669175.9,286047001.3,N
1590669195.8,286047000.4,N
1590669215.6,286046996.6,N
1590669235.4,286047000.0,N
1590669255.3,286046999.9,N
1590669275.1,286047000.0,N
1590669295.9,286047004.3,N
1590669315.7,286047003.3,N
1590669335.5,286047005.7,N
1590669355.4,286047003.4,N
1590669375.2,286047006.0,N
1590669395.0,286047003.6,N
1590669396.0,286047003.6,N
1590669415.8,286047003.8,N
1590669435.6,286047004.0,N
1590669455.5,286047004.4,N
1590669475.3,286047001.3,N
1590669495.1,286047004.2,N
1590669515.9,286047003.4,N
1590669535.7,286047001.7,N
1590669555.6,286047004.1,N
1590669575.4,286047003.6,N
1590669595.2,286047002.0,N
1590669615.1,286047003.1,N
1590669616.0,286047003.1,N
1590669635.8,286047003.6,N
1590669655.7,286047003.4,N
1590669675.5,286047005.5,N
1590669695.3,286047006.0,Y
1590669715.2,286046999.9,P
1590669735.0,286046996.5,N
1590669735.9,286046996.5,N
1590669755.8,286047001.9,N
1590669775.6,286047000.8,N
1590669795.4,286046998.7,N
1590669815.3,286047001.1,N
1590669835.1,286046999.9,N
1590669855.8,286047002.1,N
1590669875.7,286047002.9,N
1590669895.5,286047003.8,N
1590669915.4,286047003.7,N
1590669935.2,286047003.1,N
1590669955.0,286047004.4,N
1590669955.9,286047004.4,N
1590669975.8,286047002.5,N
1590669995.6,286047001.9,N
1590670015.5,286047004.3,N
1590670035.3,286047003.6,N
1590670055.1,286047001.5,N
1590670075.9,286047002.9,N
1590670095.7,286047005.7,N
1590670115.6,286047003.8,N
1590670135.4,286047004.3,N
1590670155.2,286047005.6,N
1590670175.1,286047005.6,N
1590670176.0,286047005.6,N
1590670195.8,286047004.9,N
1590670215.7,286047006.3,N
1590670235.5,286047005.5,N
1590670255.3,286047005.8,N
1590670275.2,286047005.1,N
1590670295.9,286047005.1,N
1590670315.7,286047005.9,Y
1590670335.6,286047002.7,P
1590670355.4,286047003.6,P
1590670375.3,286047000.2,N
1590670395.1,286046998.4,N
1590670396.0,286046998.4,N
1590670415.8,286047000.6,N
1590670435.7,286046999.0,N
1590670455.5,286046998.6,N
1590670475.3,286046999.5,N
1590670495.2,286046999.5,N
1590670515.0,286047000.3,N
1590670515.9,286047000.3,N
1590670535.8,286046998.4,N
1590670555.6,286046998.7,N
1590670575.4,286046999.0,N
1590670595.3,286046999.3,N
1590670615.1,286046999.2,N
1590670635.9,286046998.8,N
1590670655.7,286046999.4,N
1590670675.5,286046998.3,N
1590670695.4,286046997.8,N
1590670715.2,286046999.2,N
1590670735.0,286047001.0,N
1590670735.9,286047001.0,N
1590670755.8,286047000.7,N
1590670775.6,286047000.3,N
1590670795.5,286046998.5,N
